Погода в Новоенисейке

Россия / Республика Хакасия     53°09′49″N   91°30′57″E
темп.,
°C
ветер,
м/с
пор.,
м/с
влажн.,
%
обл.,
%
осадки,
мм/ч
давл.,
гПа
погр.,
м
20 сентября, пн
пн2001:00+12зюз2287100 0.0 100516
04:00+12з2278100 0.0 100543
07:00+12зюз1165100 0.1 100514
10:00+7зюз131982100 9.0 10101230
13:00+10зюз10145536 10.1 10141863
16:00+12зюз6104096 0.1 10142256
19:00+8зюз485888 0.1 1016229
22:00+6юз3868100 0.0 1017196
21 сентября, вт
вт2101:00+7ююз61063100 0.0 1016640
04:00+6ю3770100 0.0 1016241
07:00+5юз1271100 0.0 101520
10:00+9зюз61052100 0.0 10151588
13:00+9з9114789 0.0 10161884
16:00+9зюз8114386 0.0 10161927
19:00+6зюз611575 0.0 1018454
22:00+3юз511735 0.0 1019313
22 сентября, ср
ср2201:00+3юз511685 0.0 1020427
04:00+2юз411695 0.0 1020346
07:00+1ююз36785 0.0 1021156
10:00+7зюз674651 0.0 10201284
13:00+10з683831 0.0 10191620
16:00+10з6837100 0.0 10181552
19:00+7зюз51046100 0.0 1020399
22:00+6зюз3856100 0.0 1021300
23 сентября, чт
чт2301:00+5юз3664100 0.0 1021215
04:00+5ююз1168100 0.0 102127
07:00+5ююз2367100 0.0 1022109
10:00+7зюз4657100 0.1 10221359
13:00+9з4543100 0.1 10231836
16:00+9з3445100 0.1 10221564
19:00+6юз2256100 0.1 102424
22:00+4з2468100 0.0 1026135
24 сентября, пт
пт2401:00+1зсз239345 0.0 102747
04:00+3всв018986 0.1 102688
07:00+3ссв008096 0.1 1027252
10:00+4сз1170100 0.0 1027682
13:00+6сз1157100 0.0 10261176
16:00+7всв124846 0.0 10251230
19:00+4вюв356439 0.0 102769
22:00+3зюз511609 0.0 1029447